Location: Newark
(20.0000°S, 47.0000°E)
Time: 21:24:15
(UTC+00:00)

Envisat - Pass Details

Date: 19 June 2019
Orbit: 764 x 766 km, 98.1° (Epoch: 16 July)

Event Time Altitude Azimuth Distance (km) Brightness Sun altitude
Exits shadow 15:00:17 10° 128° (SE) 2,291 4.8 -9.3°
Maximum altitude 15:03:50 20° 82° (E) 1,731 4.3 -10.1°
Drops below altitude 10° 15:07:27 10° 37° (NE) 2,295 5.3 -10.9°
Sets 15:10:20 0° 20° (NNE) 3,213 6.3 -11.5°
